DateTimeUTC,F1_A11,F1_S11,BsB_S11,BsG_S11,BsR_S11,BbsB_S11,BbsG_S11,BbsR_S11,BaB_A11,BaG_A11,BaR_A11,Tu_S11,T_S11,Uu_S11,U_S11,P_S11,T1_A11
2021-05-16T07:00:00Z,00040200,21000000,,,,,,,0000.14,0000.01,0000.08,16.1,23.1,,00.0,0674.5,30.9
2021-05-16T07:01:00Z,00040200,21000000,,,,,,,0000.39,0000.60,0000.51,16.1,23.2,,00.0,0674.5,30.8
2021-05-16T07:02:00Z,00040200,21000000,,,,,,,0000.11,0000.07,-000.03,16.1,23.2,,00.0,0674.5,30.8
2021-05-16T07:03:00Z,00040200,61000000,,,,,,,0001.45,0001.03,0000.86,16.1,23.2,,00.0,0674.5,30.8
2021-05-16T07:04:00Z,00040200,41000000,0002.26,0001.42,0000.96,0000.59,0000.40,0000.45,0001.20,0000.77,0000.62,16.2,22.9,00.4,00.3,0675.4,30.8
2021-05-16T07:05:00Z,00040200,01000000,0002.42,0001.40,0000.89,0001.31,0000.39,0000.25,0000.92,0001.45,0000.52,16.2,22.8,00.5,00.3,0675.5,30.8
2021-05-16T07:06:00Z,00040200,01000000,0002.67,0001.31,0000.90,0000.62,0000.48,0000.25,0000.72,0000.35,0000.63,16.2,22.8,00.6,00.4,0675.5,30.8
2021-05-16T07:07:00Z,00040200,01000000,0001.96,0001.38,0001.01,0000.67,0000.29,0000.01,0000.21,0000.08,0000.35,16.2,22.8,00.5,00.4,0675.5,30.8
2021-05-16T07:08:00Z,00040200,01000000,0002.41,0001.53,0000.96,0000.89,0000.31,0000.00,0000.89,0000.72,0000.78,16.1,22.8,00.6,00.4,0675.5,30.8
2021-05-16T07:09:00Z,00040200,01000000,0002.69,0001.47,0001.22,0001.18,0000.52,0000.16,0000.61,0000.57,0000.34,16.1,22.7,00.5,00.4,0675.5,30.8
2021-05-16T07:10:00Z,00040200,01000000,0002.28,0001.62,0001.19,0001.09,0000.44,0000.35,0000.27,0000.48,0000.26,16.2,22.8,00.4,00.3,0675.5,30.9
2021-05-16T07:11:00Z,00040200,01000000,0002.49,0001.59,0001.15,0000.86,0000.56,0000.07,0000.55,0000.14,0000.20,16.2,22.8,00.4,00.3,0675.5,30.9
2021-05-16T07:12:00Z,00040200,01000000,0001.92,0001.66,0000.85,0000.50,0000.17,0000.11,0000.32,0000.56,0000.21,16.3,22.8,00.3,00.2,0675.5,30.9
2021-05-16T07:13:00Z,00040200,01000000,0001.98,0001.19,0001.03,0000.51,0000.57,0000.08,0000.74,0000.92,0000.64,16.3,22.9,00.2,00.1,0675.5,30.9
2021-05-16T07:14:00Z,00040200,01000000,0001.29,0001.42,0000.92,0000.93,0000.51,0000.24,0001.17,0000.91,0000.89,16.3,22.8,00.3,00.2,0675.5,30.9
2021-05-16T07:15:00Z,00040200,01000000,0001.92,0001.10,0001.18,0000.80,0000.58,0000.41,0000.27,0000.35,0000.20,16.3,22.8,00.3,00.2,0675.5,30.8
2021-05-16T07:16:00Z,00040200,01000000,0002.90,0001.55,0000.97,0000.71,0000.32,0000.25,0001.41,0000.79,0000.79,16.3,22.8,00.4,00.2,0675.5,30.8
2021-05-16T07:17:00Z,00040200,01000000,0002.06,0001.53,0000.68,0000.61,0000.32,0000.28,0000.80,0000.66,0000.31,16.3,22.8,00.4,00.2,0675.5,30.8
2021-05-16T07:18:00Z,00040200,01000000,0001.63,0001.21,0000.62,0000.43,0000.56,0000.08,0000.61,0000.87,0000.84,16.2,22.8,00.4,00.3,0675.5,30.8
2021-05-16T07:19:00Z,00040200,01000000,0002.12,0001.26,0000.95,0000.67,0000.25,0000.16,0000.81,0000.71,0000.40,16.2,22.8,00.4,00.2,0675.5,30.8
2021-05-16T07:20:00Z,00040200,01000000,0001.93,0001.21,0000.92,0000.64,0000.32,0000.27,0000.71,0001.01,0000.40,16.2,22.8,00.4,00.2,0675.5,30.8
2021-05-16T07:21:00Z,00040200,01000000,0002.05,0001.19,0000.95,0000.83,0000.35,0000.15,0001.00,0000.65,0000.54,16.2,22.7,00.5,00.3,0675.5,30.8
2021-05-16T07:22:00Z,00040200,01000000,0001.42,0001.20,0000.66,0001.31,0000.29,0000.38,0001.02,0000.74,0000.64,16.2,22.7,00.5,00.4,0675.5,30.8
2021-05-16T07:23:00Z,00040200,01000000,0001.95,0000.96,0000.83,0000.69,0000.38,0000.56,0000.57,0000.72,0000.46,16.2,22.7,00.6,00.4,0675.5,30.8
2021-05-16T07:24:00Z,00040200,01000000,0001.60,0000.96,0000.87,0000.73,0000.12,0000.42,0000.24,0000.14,0000.30,16.2,22.7,00.7,00.4,0675.5,30.8
2021-05-16T07:25:00Z,00040200,01000000,0001.62,0001.06,0000.78,0001.48,0000.32,0000.00,0001.05,0001.10,0000.58,16.2,22.7,00.7,00.4,0675.5,30.9
2021-05-16T07:26:00Z,00040200,01000000,0001.39,0001.02,0000.76,0000.88,0000.16,-000.16,0000.65,0000.41,0000.74,16.3,22.8,00.6,00.4,0675.5,30.9
2021-05-16T07:27:00Z,00040200,01000000,0001.75,0001.07,0000.81,0000.61,0000.37,-000.04,0000.39,0000.46,0000.38,16.3,22.8,00.7,00.5,0675.5,30.9
2021-05-16T07:28:00Z,00040200,01000000,0001.78,0000.93,0000.74,-000.19,0000.38,0000.44,0000.56,0000.44,0000.19,16.4,22.8,00.6,00.4,0675.5,30.9
2021-05-16T07:29:00Z,00040200,01000000,0001.82,0001.12,0001.15,0000.69,0000.46,0000.42,0000.97,0000.78,0000.31,16.4,22.8,00.6,00.4,0675.5,30.9
2021-05-16T07:30:00Z,00040200,01000000,0001.41,0001.10,0001.01,0000.76,0000.31,-000.01,0000.40,0000.28,0000.36,16.4,22.8,00.6,00.4,0675.5,30.9
2021-05-16T07:31:00Z,00040200,01000000,0002.25,0001.37,0000.97,0001.05,0000.50,0000.20,0000.44,0000.47,0000.43,16.3,22.8,00.7,00.4,0675.5,30.8
2021-05-16T07:32:00Z,00040200,01000000,0002.06,0001.04,0001.02,0000.73,0000.38,0000.05,0000.62,0000.94,0000.91,16.3,22.8,00.7,00.4,0675.5,30.8
2021-05-16T07:33:00Z,00040200,01000000,0002.20,0001.13,0000.80,0001.07,0000.65,0000.31,0000.63,0000.56,0000.03,16.3,22.8,00.6,00.4,0675.5,30.8
2021-05-16T07:34:00Z,00040200,01000000,0001.75,0001.43,0000.97,0000.38,0000.38,0000.41,0000.87,0000.39,0000.71,16.3,22.7,00.6,00.4,0675.5,30.8
2021-05-16T07:35:00Z,00040200,01000000,0001.56,0001.56,0001.01,0000.76,0000.13,0000.19,0000.58,0000.37,0000.20,16.3,22.7,00.6,00.4,0675.5,30.8
2021-05-16T07:36:00Z,00040200,01000000,0001.94,0001.18,0000.77,0000.75,0000.27,0000.10,0000.85,0001.13,0000.85,16.3,22.7,00.7,00.4,0675.5,30.8
2021-05-16T07:37:00Z,00040200,01000000,0000.92,0001.11,0000.84,0000.48,0000.35,0000.24,0000.45,0000.51,0000.42,16.2,22.7,00.7,00.4,0675.5,30.8
2021-05-16T07:38:00Z,00040200,01000000,0002.10,0001.16,0000.86,0000.85,0000.42,0000.08,0000.68,0000.56,0000.40,16.2,22.7,00.7,00.5,0675.5,30.8
2021-05-16T07:39:00Z,00040200,01000000,0001.58,0000.92,0000.80,0000.64,0000.39,0000.31,0000.55,0000.49,0000.28,16.3,22.7,00.7,00.5,0675.5,30.8
2021-05-16T07:40:00Z,00040200,01000000,0001.00,0001.17,0000.83,0000.42,0000.50,0000.23,0000.57,0000.33,0000.58,16.3,22.7,00.8,00.5,0675.5,30.9
2021-05-16T07:41:00Z,00040200,01000000,0001.44,0001.03,0000.98,0000.99,0000.40,0000.36,0000.63,0001.05,0000.34,16.3,22.8,00.6,00.4,0675.5,30.9
2021-05-16T07:42:00Z,00040200,01000000,0001.55,0001.02,0001.00,0000.83,0000.28,0000.22,0000.70,0000.03,0000.33,16.4,22.8,00.7,00.5,0675.5,30.9
2021-05-16T07:43:00Z,00040200,01000000,0002.69,0001.72,0001.18,0000.72,0000.20,0000.32,0000.44,0000.56,0000.48,16.4,22.8,00.7,00.4,0675.5,30.9
2021-05-16T07:44:00Z,00040200,01000000,0002.08,0001.29,0001.08,0000.82,0000.35,0000.29,0000.82,0001.03,0000.79,16.4,22.8,00.7,00.5,0675.5,30.9
2021-05-16T07:45:00Z,00040200,01000000,0002.66,0001.77,0001.21,0000.62,0000.26,0000.14,0000.52,0000.46,-000.07,16.4,22.8,00.6,00.4,0675.5,30.9
2021-05-16T07:46:00Z,00040200,01000000,0002.97,0001.59,0000.90,0000.99,0000.42,0000.28,0000.82,0000.55,0000.71,16.3,22.8,00.7,00.5,0675.5,30.8
2021-05-16T07:47:00Z,00040200,01000000,0002.90,0002.21,0001.35,0000.67,0000.39,0000.30,0000.98,0000.55,0000.45,16.3,22.8,00.5,00.3,0675.5,30.8
2021-05-16T07:48:00Z,00040200,01000000,0003.75,0002.51,0001.47,0000.90,0000.45,0000.16,0000.97,0001.07,0000.49,16.3,22.8,00.4,00.3,0675.5,30.8
2021-05-16T07:49:00Z,00040200,01000000,0004.14,0002.59,0001.63,0001.14,0000.67,0000.53,0000.96,0001.34,0001.15,16.3,22.8,00.4,00.3,0675.5,30.8
2021-05-16T07:50:00Z,00040200,01000000,0004.01,0002.93,0002.00,0000.86,0000.72,0000.28,0001.46,0000.51,0000.63,16.3,22.7,00.4,00.2,0675.5,30.8
2021-05-16T07:51:00Z,00040200,01000000,0004.52,0002.55,0001.87,0000.69,0000.69,0000.38,0001.13,0001.53,0001.01,16.3,22.7,00.5,00.3,0675.5,30.8
2021-05-16T07:52:00Z,00040200,01000000,0004.11,0002.80,0002.01,0000.86,0000.57,0000.34,0001.52,0001.17,0000.76,16.3,22.7,00.4,00.3,0675.5,30.8
2021-05-16T07:53:00Z,00140200,01000000,0004.18,0002.73,0001.81,0001.02,0000.48,0000.37,0001.02,0000.70,0000.85,16.3,22.7,00.4,00.3,0675.5,30.8
2021-05-16T07:53:27Z,00140200,01000000,0004.18,0002.73,0001.81,0001.02,0000.48,0000.37,,,,16.3,22.7,00.4,00.3,0675.5,30.8
2021-05-16T07:53:28Z,00140200,01000000,0004.18,0002.73,0001.81,0001.02,0000.48,0000.37,,,,16.3,22.7,00.4,00.3,0675.5,30.8
2021-05-16T07:54:00Z,00000200,01000000,0003.94,0003.08,0001.86,0001.13,0000.60,0000.26,0000.66,0000.63,0000.04,16.3,22.7,00.3,00.2,0675.5,30.8
2021-05-16T07:55:00Z,00000200,01000000,0004.13,0002.73,0001.79,0001.35,0000.58,0000.74,0001.22,0000.81,0000.75,16.3,22.7,00.3,00.2,0675.5,30.8
2021-05-16T07:56:00Z,00000200,01000000,0004.13,0002.43,0001.55,0000.98,0000.56,0000.57,0001.39,0001.12,0000.99,16.3,22.8,00.3,00.2,0675.5,30.8
2021-05-16T07:57:00Z,00000200,41000000,,,,,,,-000.19,0000.22,0000.57,16.4,22.8,00.3,00.2,0675.5,30.8
2021-05-16T07:58:00Z,00000200,61000000,,,,,,,-000.06,-000.18,-000.38,16.1,22.9,00.0,00.0,0674.5,30.8
2021-05-16T07:59:00Z,00000200,21000000,,,,,,,-000.26,-000.07,-000.33,16.1,23.0,,00.0,0674.5,30.7
